Regional Weather Roundup
Issued by NWS

Home | Current Version | Previous Version | Text Only | Print | Product List | Glossary On
Versions: 1 2 3 4 5 6 7 8 9 10 11 12 13 14 15 16 17 18 19 20 21 22 23 24 25 26 27 28 29 30 31 32 33 34 35 36 37 38 39 40 41 42 43 44 45 46 47 48 49 50
000
ASUS44 KLUB 101110
RWRTX
WEST TEXAS WEATHER ROUNDUP
NATIONAL WEATHER SERVICE LUBBOCK TX
500 AM CST WED FEB 10 2016

NOTE: "FAIR" INDICATES FEW OR NO CLOUDS BELOW 12,000 FEET WITH NO
SIGNIFICANT WEATHER AND/OR OBSTRUCTIONS TO VISIBILITY.

TXZ004-006>008-010-012-014-016-OKZ002-101200-
TEXAS PANHANDLE/OKLAHOMA PANHANDLE

CITY           SKY/WX    TMP DP  RH WIND       PRES   REMARKS
AMARILLO       CLOUDY    31  22  69 SW8       30.27F WCI  23
BORGER         CLEAR     34  24  67 W6        30.24F WCI  29
CANADIAN       CLOUDY    26  24  93 CALM      30.21F
DALHART        CLOUDY    32  18  56 W14       30.25F WCI  22
DUMAS          CLOUDY    30  21  68 SW10      30.24F WCI  21
GUYMON         CLEAR     38  22  52 W13       30.18F WCI  30
PAMPA          CLEAR     36  27  71 SW9       30.24F WCI  29
PERRYTON       CLEAR     35  28  75 SW9       30.19F WCI  27
$$

TXZ026-029-035-045-048-101200-
SOUTHERN PANHANDLE/SOUTH PLAINS/ROLLING PLAINS

CITY           SKY/WX    TMP DP  RH WIND       PRES   REMARKS
CHILDRESS      CLEAR     33  24  69 S7        30.27F WCI  27
SEMINOLE       CLOUDY    35  22  58 W7        30.33S WCI  29
LUBBOCK        CLOUDY    27  17  66 W8        30.30F WCI  19
PLAINVIEW      CLOUDY    28  17  63 NW6       30.27F WCI  22
SNYDER           N/A     38  25  61 N7        30.31S WCI  32
$$

TXZ052-054-060>062-072-078-127-140-154-169-101200-
PERMIAN BASIN/CONCHO VALLEY/BIG COUNTRY/EDWARDS PLATEAU

CITY           SKY/WX    TMP DP  RH WIND       PRES   REMARKS
ABILENE        CLEAR     39  29  67 CALM      30.30S
BIG SPRING     CLEAR     32  22  65 SE6       30.34R WCI  26
BROWNWOOD      MOCLDY    32  27  80 MISG      30.33S
JUNCTION       CLEAR     31  23  72 CALM      30.33R
MIDLAND        PTCLDY    37  24  59 W5        30.32S WCI  33
ODESSA         PTCLDY    40  23  50 W6        30.32F
SAN ANGELO     CLEAR     32  22  66 CALM      30.31S
SONORA         PTCLDY    28  23  80 CALM      30.36S
SWEETWATER     CLEAR     45  22  39 SW9       30.32S
WINK           CLOUDY    30  20  66 N7        30.31F WCI  23
$$

TXZ055-058-074-075-080-082-101200-
FAR WEST/SOUTHWEST MOUNTAINS/TRANS PECOS

CITY           SKY/WX    TMP DP  RH WIND       PRES   REMARKS
ALPINE         CLOUDY    35  16  46 SW10      30.42S WCI  27
DRYDEN           N/A     42  20  41 NW8       30.30S
EL PASO        CLEAR     37  18  46 NE5       30.34S WCI  33
FORT STOCKTON  CLEAR     41  22  46 W12       30.32S
GUADALUPE PASS CLOUDY    46  15  28 SW7       30.37F
MARFA          CLOUDY    25  15  66 N6        30.39S WCI  18
PECOS          CLOUDY    30  22  74 W6        30.34S WCI  24
PRESIDIO       FAIR      41  17  37 NW5       30.36R
$$

TXZ014-016-019-021>030-083-101200
TEXAS TECH WEST TEXAS MESONET/TEXAS PANHANDLE/NORTHERN SOUTH PLAINS

CITY           SKY/WX    TMP DP  RH WIND       PRES   REMARKS
ABERNATHY 5ENE   N/A     28  19  71 W8        30.30S WCI  19
AMARILLO 9NNE    N/A     23  19  83 S2        30.27F
AMARILLO 7SSE    N/A     26  20  76 W9        30.28F WCI  17
AMHERST 1NE      N/A     28  15  59 W8        30.31S WCI  19
BOOTLEG 11WNW    N/A     39  19  44 W14       30.30F WCI  31
CANADIAN 6E      N/A     28  24  84 NW6       30.19F WCI  22
CAPROCK CYN SP   N/A     37  24  58 W6        30.27F WCI  33
CHILDRESS 2NNE   N/A     35  25  67 S12       30.26F WCI  27
CLARENDON 2WSW   N/A     33  27  77 SW5       30.25F WCI  29
CLAUDE 12SW      N/A     40  22  48 W8        30.27S WCI  35
DIMMITT 2NE      N/A     33  18  52 W13       30.28F WCI  24
FLOYDADA 2NNE    N/A     25  18  74 W7        30.28S WCI  18
FRIONA 2NE       N/A     29  18  65 W10       30.30F WCI  19
GOODLETT 3W      N/A     30  24  78 S10       30.27F WCI  21
HART 3N          N/A     24  15  68 W8        30.29F WCI  15
HEREFORD 2NW     N/A     26  16  64 W9        30.28F WCI  17
MCLEAN 1E        N/A     39  27  61 SW8       30.23S WCI  33
MEMPHIS 1NE      N/A     27  23  84 CALM      30.27F
MULESHOE 2SSW    N/A     29  17  62 SW9       30.32S WCI  20
OLTON 6S         N/A     28  16  62 W9        30.30S WCI  19
PALO DURO SP     N/A     32  19  57 W8        30.28F WCI  25
PAMPA 2E         N/A     33  25  74 SW7       30.23F WCI  26
PLAINVIEW 1S     N/A     32  19  58 W6        30.28F WCI  26
SILVERTON 7ESE   N/A     29  20  68 W8        30.28F WCI  21
TULIA 2ENE       N/A     32  20  61 W7        30.28F WCI  26
TURKEY 2WSW      N/A     34  26  73 SW8       30.26F WCI  27
UMBARGER 3NNE    N/A     24  15  68 SW8       30.28F WCI  16
$$

TXZ033>036-039>041-045>048-101200
TEXAS TECH WEST TEXAS MESONET/SOUTH PLAINS

CITY           SKY/WX    TMP DP  RH WIND       PRES   REMARKS
AIKEN 3WSW       N/A     24  17  74 W6        30.30S WCI  17
ANDREWS 2NE      N/A     37  22  55 W7        30.32F WCI  31
ANTON 6SSW       N/A     27  16  63 W6        30.31F WCI  21
BROWNFIELD 2S    N/A     33  19  55 W8        30.32S WCI  26
DENVR CTY 7WNW   N/A     32  19  59 W9        30.32S WCI  24
GAIL 2ESE        N/A     42  20  42 NW3       30.30R
LAMESA 2SE       N/A     35  20  55 W7        30.32S WCI  29
LEVELLAND 4S     N/A     28  17  63 W7        30.32S WCI  20
LUBBOCK 3WNW     N/A     31  17  55 W6        30.32S WCI  26
MORTON 1ENE      N/A     30  17  58 W9        30.31F WCI  22
ODONNELL 1N      N/A     32  19  58 W12       30.31S WCI  23
PLAINS 3N        N/A     28  18  66 W8        30.32S WCI  20
RALLS 1SE        N/A     33  17  51 W9        30.29F WCI  26
REESE CENTER     N/A     29  18  63 W10       30.31S WCI  19
SEAGRAVES 1SW    N/A     31  20  65 W6        30.32S WCI  25
SEMINOLE 2NNE    N/A     35  20  54 W7        30.32S WCI  29
SLATON 2NE       N/A     34  20  54 W9        30.30F WCI  27
SNYDER 3E        N/A     41  25  52 N7        30.30R
SUNDOWN 8SW      N/A     31  16  54 W7        30.32S WCI  24
TAHOKA 3NNE      N/A     36  18  48 W9        30.30F WCI  29
WOLFFORTH 6SSW   N/A     35  17  46 W9        30.31F WCI  28
$$

TXZ031-032-036>038-042>044-101200-
TEXAS TECH WEST TEXAS MESONET/ROLLING PLAINS

CITY           SKY/WX    TMP DP  RH WIND       PRES   REMARKS
ASPERMONT 3NE    N/A     32  27  80 SW3       30.30S
FLUVANNA 3WNW    N/A     38  20  47 N6        30.30S WCI  34
GRAHAM 5SSW      N/A     42  19  39 W15       30.30S
GUTHRIE 10WSW    N/A     36  28  72 SW2       30.28S
HASKELL 1NW      N/A     38  27  62 S5        30.29S WCI  35
JAYTON 1SSE      N/A     31  26  81 W5        30.29F WCI  27
KNOX CITY 3NW    N/A     30  25  81 NE1       30.31S
LK A HENRY 1NW   N/A     34  21  58 W7        30.30S WCI  28
NORTHFIELD 1S    N/A     31  28  88 SW7       30.27F WCI  24
ODELL 4ENE       N/A     31  26  84 SW8       30.28F WCI  23
PADUCAH 10SW     N/A     33  27  81 SE3       30.28F
POST 1NE         N/A     44  19  37 W7        30.30S
RRING SPRGS 3N   N/A     36  28  74 W10       30.27F WCI  28
SEYMOUR 3NW      N/A     33  26  77 S2        30.30S
SPUR 1W          N/A     30  26  83 W2        30.28S
WEINERT 2NNE     N/A     32  24  73 E3        30.30S
WHITE RVR 6NE    N/A     40  25  54 NW2       30.29S
$$

TXZ052-054-060>062-072-078-127-140-154-169-101200-
TEXAS TECH WEST TEXAS MESONET/PERMIAN BASIN/
CONCHO VALLEY/BIG COUNTRY/EDWARDS PLATEAU

CITY           SKY/WX    TMP DP  RH WIND       PRES   REMARKS
COYANOSA 2N      N/A     31  23  72 W6        30.33S WCI  25
JUNCTION 1SSW    N/A     27  23  84 CALM      30.34S
MERTZON 3NNE     N/A     31  23  71 S7        30.32S WCI  24
SAN ANGELO 7NW   N/A     29  17  60 W2        30.32R
STRLNG CT 4WSW   N/A     26  21  82 W1        30.32S
ST LAWRNCE 5SW   N/A     35  21  57 W7        30.32S WCI  29
SWEETWATR 11SW   N/A     41  23  48 SE3       30.32S
WALL 1E          N/A     34  21  58 SW8       30.32S WCI  27
$$

TXZ055-058-074-075-080-082-101200-
TEXAS TECH WEST TEXAS MESONET/FAR WEST/SOUTHWEST MOUNTAINS/TRANS PECOS

CITY           SKY/WX    TMP DP  RH WIND       PRES   REMARKS
PRSMN GAP BBNP   N/A     40  13  33 SW2       30.34S
GUADLPE MTN NP   N/A     45  13  27 W9        30.37S
$$



USA.gov is the U.S. government's official web portal to all federal, state and local government web resources and services.